EZY54ED EGKK-EDDL

Flight info

Callsign EZY54ED
Flight time 1h 2m
Altitude 31000
Route DVR L9 KONAN DCT KOK UL607 SPI Y862 KENUM M170 NVO T857 BIKMU BIKMU1A
Aircraft A21N/M-SDE2E3FGHIJ1RWXYZ/LB1G1

Departure

Time 2026-05-06 20:08
Airport London Gatwick Airport (EGKK)

Arrival

Time 2026-05-06 21:10
Airport Düsseldorf Airport (EDDL)
Time Latitude Longitude Altitude Speed Heading
2026-05-06 19:19 51.15403 -0.16421 219 ft 0 kts 77°
2026-05-06 19:52 51.15402 -0.16431 208 ft 3 kts 77°
2026-05-06 19:52 51.15396 -0.16459 216 ft 3 kts 69°
2026-05-06 19:52 51.15384 -0.16480 220 ft 3 kts
2026-05-06 19:52 51.15376 -0.16480 220 ft 0 kts 344°
2026-05-06 19:57 51.15392 -0.16493 213 ft 6 kts 328°
2026-05-06 19:57 51.15408 -0.16529 211 ft 3 kts 286°
2026-05-06 19:57 51.15410 -0.16570 210 ft 4 kts 267°
2026-05-06 19:57 51.15407 -0.16609 211 ft 3 kts 260°
2026-05-06 19:58 51.15397 -0.16684 214 ft 10 kts 256°
2026-05-06 19:58 51.15375 -0.16827 216 ft 16 kts 256°
2026-05-06 19:58 51.15348 -0.17013 208 ft 17 kts 258°
2026-05-06 19:58 51.15324 -0.17196 214 ft 17 kts 257°
2026-05-06 19:59 51.15303 -0.17381 216 ft 17 kts 264°
2026-05-06 19:59 51.15286 -0.17563 217 ft 15 kts 259°
2026-05-06 19:59 51.15266 -0.17718 214 ft 15 kts 257°
2026-05-06 19:59 51.15239 -0.17876 213 ft 15 kts 255°
2026-05-06 20:00 51.15216 -0.18082 217 ft 22 kts 258°
2026-05-06 20:00 51.15185 -0.18306 218 ft 20 kts 263°
2026-05-06 20:00 51.15160 -0.18518 216 ft 19 kts 256°
2026-05-06 20:00 51.15130 -0.18725 208 ft 19 kts 259°
2026-05-06 20:01 51.15104 -0.18923 213 ft 18 kts 258°
2026-05-06 20:01 51.15079 -0.19113 214 ft 17 kts 258°
2026-05-06 20:01 51.15048 -0.19330 214 ft 20 kts 256°
2026-05-06 20:01 51.15019 -0.19548 214 ft 21 kts 258°
2026-05-06 20:02 51.14990 -0.19769 211 ft 20 kts 258°
2026-05-06 20:02 51.14960 -0.19988 208 ft 20 kts 257°
2026-05-06 20:02 51.14929 -0.20208 212 ft 20 kts 257°
2026-05-06 20:02 51.14898 -0.20422 217 ft 20 kts 257°
2026-05-06 20:03 51.14876 -0.20577 211 ft 19 kts 257°
2026-05-06 20:03 51.14849 -0.20772 208 ft 19 kts 257°
2026-05-06 20:03 51.14820 -0.20976 210 ft 18 kts 257°
2026-05-06 20:03 51.14789 -0.21170 214 ft 18 kts 251°
2026-05-06 20:04 51.14759 -0.21354 208 ft 16 kts 251°
2026-05-06 20:04 51.14737 -0.21399 214 ft 0 kts 210°
2026-05-06 20:04 51.14733 -0.21401 214 ft 5 kts 198°
2026-05-06 20:05 51.14664 -0.21364 216 ft 9 kts 145°
2026-05-06 20:05 51.14622 -0.21334 218 ft 0 kts 165°
2026-05-06 20:06 51.14619 -0.21332 217 ft 3 kts 165°
2026-05-06 20:06 51.14575 -0.21310 212 ft 8 kts 154°
2026-05-06 20:06 51.14536 -0.21259 213 ft 6 kts 126°
2026-05-06 20:07 51.14522 -0.21202 217 ft 5 kts 98°
2026-05-06 20:07 51.14527 -0.21123 219 ft 15 kts 79°
2026-05-06 20:07 51.14565 -0.20841 215 ft 36 kts 78°
2026-05-06 20:07 51.14662 -0.20151 214 ft 95 kts 77°
2026-05-06 20:08 51.14852 -0.18764 212 ft 158 kts 77°
2026-05-06 20:08 51.15108 -0.16932 521 ft 175 kts 77°
2026-05-06 20:08 51.15392 -0.14869 844 ft 198 kts 77°
2026-05-06 20:08 51.15699 -0.12631 1294 ft 212 kts 76°
2026-05-06 20:09 51.16019 -0.10300 1976 ft 218 kts 76°
2026-05-06 20:09 51.16352 -0.07876 2562 ft 231 kts 76°
2026-05-06 20:09 51.16704 -0.05303 3097 ft 244 kts 77°
2026-05-06 20:09 51.16876 -0.02519 3663 ft 258 kts 88°
2026-05-06 20:10 51.16856 0.00371 4412 ft 263 kts 90°
2026-05-06 20:10 51.16799 0.03308 5127 ft 269 kts 91°
2026-05-06 20:10 51.16735 0.06316 5911 ft 272 kts 91°
2026-05-06 20:10 51.16673 0.09345 6592 ft 274 kts 91°
2026-05-06 20:11 51.16613 0.12386 6906 ft 275 kts 91°
2026-05-06 20:11 51.16569 0.15412 6966 ft 277 kts 90°
2026-05-06 20:11 51.16564 0.18488 6971 ft 278 kts 89°
2026-05-06 20:11 51.16569 0.21572 6969 ft 279 kts 89°
2026-05-06 20:12 51.16575 0.24658 6971 ft 278 kts 89°
2026-05-06 20:12 51.16581 0.27784 6961 ft 278 kts 89°
2026-05-06 20:12 51.16585 0.30823 6973 ft 278 kts 89°
2026-05-06 20:12 51.16588 0.33944 6966 ft 278 kts 89°
2026-05-06 20:13 51.16589 0.36987 6965 ft 278 kts 89°
2026-05-06 20:13 51.16589 0.40064 7018 ft 279 kts 89°
2026-05-06 20:13 51.16589 0.43226 7522 ft 283 kts 89°
2026-05-06 20:13 51.16587 0.46362 8366 ft 284 kts 89°
2026-05-06 20:14 51.16585 0.49524 9192 ft 287 kts 89°
2026-05-06 20:14 51.16583 0.52703 9766 ft 291 kts 89°
2026-05-06 20:14 51.16583 0.55996 9952 ft 294 kts 89°
2026-05-06 20:14 51.16581 0.59307 9969 ft 296 kts 89°
2026-05-06 20:15 51.16580 0.61585 9975 ft 312 kts 89°
2026-05-06 20:15 51.16576 0.66439 9964 ft 324 kts 89°
2026-05-06 20:15 51.16570 0.69887 9977 ft 304 kts 89°
2026-05-06 20:15 51.16562 0.73299 9984 ft 323 kts 89°
2026-05-06 20:16 51.16556 0.76291 9971 ft 344 kts 89°
2026-05-06 20:16 51.16548 0.80148 9978 ft 352 kts 89°
2026-05-06 20:16 51.16538 0.83807 9985 ft 353 kts 89°
2026-05-06 20:16 51.16524 0.88073 9989 ft 352 kts 89°
2026-05-06 20:17 51.16508 0.92185 10058 ft 355 kts 89°
2026-05-06 20:17 51.16491 0.96588 10775 ft 358 kts 89°
2026-05-06 20:17 51.16477 0.99883 11496 ft 358 kts 90°
2026-05-06 20:17 51.16458 1.04007 12354 ft 360 kts 90°
2026-05-06 20:18 51.16438 1.08047 13128 ft 364 kts 90°
2026-05-06 20:18 51.16418 1.12062 13849 ft 369 kts 90°
2026-05-06 20:18 51.16396 1.16249 14516 ft 373 kts 90°
2026-05-06 20:18 51.16367 1.20412 15184 ft 377 kts 91°
2026-05-06 20:19 51.16194 1.24646 15841 ft 381 kts 95°
2026-05-06 20:19 51.15900 1.28850 16489 ft 385 kts 96°
2026-05-06 20:19 51.15585 1.33122 17121 ft 389 kts 96°
2026-05-06 20:19 51.15264 1.37483 17740 ft 392 kts 96°
2026-05-06 20:20 51.14948 1.41808 18330 ft 396 kts 96°
2026-05-06 20:20 51.14633 1.46199 18817 ft 401 kts 96°
2026-05-06 20:20 51.14322 1.50623 19326 ft 404 kts 96°
2026-05-06 20:20 51.14010 1.55078 19872 ft 406 kts 96°
2026-05-06 20:21 51.13698 1.59568 20404 ft 409 kts 96°
2026-05-06 20:21 51.13385 1.64081 20902 ft 413 kts 96°
2026-05-06 20:21 51.13067 1.68692 21451 ft 415 kts 96°
2026-05-06 20:21 51.12755 1.73228 21939 ft 418 kts 96°
2026-05-06 20:22 51.12435 1.77909 22423 ft 421 kts 96°
2026-05-06 20:22 51.12118 1.82545 22912 ft 424 kts 96°
2026-05-06 20:22 51.11799 1.87238 23368 ft 427 kts 96°
2026-05-06 20:22 51.11482 1.91939 23776 ft 429 kts 96°
2026-05-06 20:23 51.11169 1.96694 24175 ft 431 kts 96°
2026-05-06 20:23 51.10860 2.01361 24527 ft 433 kts 96°
2026-05-06 20:23 51.10539 2.06205 24885 ft 436 kts 96°
2026-05-06 20:23 51.10216 2.11028 25237 ft 438 kts 96°
2026-05-06 20:24 51.09924 2.15914 25577 ft 440 kts 94°
2026-05-06 20:24 51.09838 2.20744 25913 ft 443 kts 91°
2026-05-06 20:24 51.09790 2.25717 26254 ft 445 kts 91°
2026-05-06 20:24 51.09757 2.30707 26573 ft 447 kts 91°
2026-05-06 20:25 51.09728 2.35684 26894 ft 449 kts 91°
2026-05-06 20:25 51.09697 2.40645 27191 ft 451 kts 91°
2026-05-06 20:25 51.09661 2.45645 27494 ft 453 kts 91°
2026-05-06 20:25 51.09620 2.50679 27794 ft 455 kts 91°
2026-05-06 20:26 51.09575 2.55710 28089 ft 457 kts 91°
2026-05-06 20:26 51.09514 2.60786 28376 ft 459 kts 94°
2026-05-06 20:26 51.09144 2.65883 28661 ft 459 kts 102°
2026-05-06 20:26 51.08689 2.69143 28898 ft 458 kts 104°
2026-05-06 20:27 51.07907 2.74056 29309 ft 457 kts 105°
2026-05-06 20:27 51.07060 2.78920 29716 ft 456 kts 107°
2026-05-06 20:27 51.06180 2.83748 30070 ft 455 kts 107°
2026-05-06 20:27 51.05289 2.88545 30426 ft 452 kts 107°
2026-05-06 20:28 51.04394 2.93342 30764 ft 450 kts 107°
2026-05-06 20:28 51.03509 2.98102 30944 ft 452 kts 107°
2026-05-06 20:28 51.01735 3.07691 30961 ft 451 kts 107°
2026-05-06 20:29 50.99970 3.17248 30961 ft 451 kts 107°
2026-05-06 20:29 50.98198 3.26805 30958 ft 451 kts 107°
2026-05-06 20:30 50.95526 3.41120 30955 ft 450 kts 107°
2026-05-06 20:31 50.93741 3.50619 30953 ft 450 kts 107°
2026-05-06 20:31 50.91945 3.60126 30949 ft 450 kts 107°
2026-05-06 20:32 50.90136 3.69615 30954 ft 450 kts 107°
2026-05-06 20:32 50.88309 3.79086 30953 ft 450 kts 108°
2026-05-06 20:33 50.86477 3.88529 30957 ft 448 kts 108°
2026-05-06 20:33 50.84640 3.97954 30956 ft 448 kts 108°
2026-05-06 20:34 50.82798 4.07368 30956 ft 448 kts 108°
2026-05-06 20:34 50.80946 4.16785 30960 ft 448 kts 108°
2026-05-06 20:35 50.79088 4.26189 30957 ft 447 kts 108°
2026-05-06 20:35 50.77229 4.35550 30962 ft 446 kts 108°
2026-05-06 20:36 50.75362 4.44905 30961 ft 446 kts 108°
2026-05-06 20:36 50.73492 4.54236 30963 ft 446 kts 108°
2026-05-06 20:37 50.71627 4.63581 30955 ft 446 kts 108°
2026-05-06 20:37 50.69811 4.72941 30943 ft 447 kts 108°
2026-05-06 20:38 50.67992 4.82338 30946 ft 448 kts 108°
2026-05-06 20:38 50.66159 4.91730 30940 ft 448 kts 108°
2026-05-06 20:39 50.64267 5.01069 30817 ft 445 kts 109°
2026-05-06 20:39 50.63319 5.05669 30413 ft 437 kts 109°
2026-05-06 20:39 50.62391 5.10151 30190 ft 426 kts 109°
2026-05-06 20:39 50.61480 5.14547 29777 ft 418 kts 109°
2026-05-06 20:40 50.60570 5.18931 29227 ft 413 kts 109°
2026-05-06 20:40 50.59680 5.23214 28660 ft 410 kts 109°
2026-05-06 20:40 50.58796 5.27461 28109 ft 407 kts 109°
2026-05-06 20:40 50.57920 5.31669 27570 ft 403 kts 109°
2026-05-06 20:41 50.57047 5.35848 27043 ft 400 kts 109°
2026-05-06 20:41 50.56184 5.39980 26517 ft 397 kts 109°
2026-05-06 20:41 50.55322 5.44095 26010 ft 394 kts 109°
2026-05-06 20:41 50.54464 5.48182 25495 ft 392 kts 109°
2026-05-06 20:42 50.53612 5.52233 25026 ft 389 kts 109°
2026-05-06 20:42 50.52774 5.56256 24537 ft 387 kts 106°
2026-05-06 20:42 50.52332 5.60394 24060 ft 384 kts 91°
2026-05-06 20:42 50.52611 5.64543 23613 ft 381 kts 74°
2026-05-06 20:43 50.53512 5.68446 23101 ft 378 kts 67°
2026-05-06 20:43 50.54619 5.72170 22530 ft 377 kts 63°
2026-05-06 20:43 50.55844 5.75813 21982 ft 375 kts 61°
2026-05-06 20:43 50.57100 5.79368 21491 ft 371 kts 60°
2026-05-06 20:44 50.58362 5.82910 20977 ft 369 kts 60°
2026-05-06 20:44 50.59601 5.86424 20494 ft 365 kts 60°
2026-05-06 20:44 50.60815 5.89921 20016 ft 363 kts 60°
2026-05-06 20:44 50.62000 5.93386 19536 ft 361 kts 61°
2026-05-06 20:45 50.63184 5.96883 19057 ft 358 kts 61°
2026-05-06 20:45 50.64348 6.00343 18569 ft 356 kts 60°
2026-05-06 20:45 50.65498 6.03776 18089 ft 354 kts 60°
2026-05-06 20:45 50.66644 6.07199 17567 ft 352 kts 60°
2026-05-06 20:46 50.67800 6.10657 17035 ft 349 kts 60°
2026-05-06 20:46 50.68927 6.14029 16544 ft 346 kts 60°
2026-05-06 20:46 50.70049 6.17376 16065 ft 343 kts 60°
2026-05-06 20:46 50.71158 6.20681 15613 ft 340 kts 60°
2026-05-06 20:47 50.72192 6.24012 15134 ft 338 kts 64°
2026-05-06 20:47 50.73127 6.27405 14678 ft 335 kts 65°
2026-05-06 20:47 50.74016 6.30781 14223 ft 333 kts 66°
2026-05-06 20:47 50.74879 6.34158 13770 ft 330 kts 66°
2026-05-06 20:48 50.75721 6.37500 13283 ft 327 kts 66°
2026-05-06 20:48 50.76545 6.40790 12781 ft 324 kts 66°
2026-05-06 20:48 50.77370 6.44089 12288 ft 322 kts 67°
2026-05-06 20:48 50.78200 6.47402 11800 ft 319 kts 66°
2026-05-06 20:49 50.79013 6.50646 11332 ft 316 kts 66°
2026-05-06 20:49 50.79821 6.53864 10870 ft 313 kts 66°
2026-05-06 20:49 50.80619 6.57046 10425 ft 310 kts 66°
2026-05-06 20:49 50.81581 6.60056 10076 ft 302 kts 53°
2026-05-06 20:50 50.82961 6.62413 9837 ft 288 kts 35°
2026-05-06 20:50 50.84676 6.63882 9497 ft 278 kts 19°
2026-05-06 20:50 50.86522 6.64723 9090 ft 274 kts 12°
2026-05-06 20:50 50.88385 6.65256 8656 ft 271 kts
2026-05-06 20:51 50.90253 6.65632 8227 ft 269 kts
2026-05-06 20:51 50.92107 6.65947 7802 ft 267 kts
2026-05-06 20:51 50.93945 6.66258 7386 ft 264 kts
2026-05-06 20:51 50.95762 6.66586 6974 ft 262 kts
2026-05-06 20:52 50.97564 6.66936 6558 ft 261 kts
2026-05-06 20:52 50.99351 6.67303 6150 ft 258 kts
2026-05-06 20:52 51.01136 6.67677 5696 ft 258 kts
2026-05-06 20:52 51.02913 6.67764 5192 ft 259 kts 359°
2026-05-06 20:53 51.04710 6.67690 4775 ft 256 kts 358°
2026-05-06 20:53 51.06478 6.67574 4382 ft 253 kts 356°
2026-05-06 20:53 51.08229 6.67441 4059 ft 251 kts 357°
2026-05-06 20:53 51.09967 6.67351 3993 ft 251 kts
2026-05-06 20:54 51.11696 6.67776 3985 ft 252 kts 13°
2026-05-06 20:54 51.13390 6.68501 3738 ft 253 kts 15°
2026-05-06 20:54 51.15073 6.69276 3319 ft 251 kts 16°
2026-05-06 20:54 51.16741 6.69982 3045 ft 245 kts
2026-05-06 20:55 51.18428 6.70016 2992 ft 244 kts 349°
2026-05-06 20:55 51.19990 6.68979 2990 ft 247 kts 326°
2026-05-06 20:55 51.21146 6.66940 2994 ft 253 kts 301°
2026-05-06 20:55 51.21643 6.64228 2995 ft 261 kts 275°
2026-05-06 20:56 51.21329 6.61378 2991 ft 261 kts 247°
2026-05-06 20:56 51.20385 6.58976 3002 ft 252 kts 234°
2026-05-06 20:56 51.19340 6.56855 3017 ft 237 kts 236°
2026-05-06 20:56 51.18760 6.54488 3019 ft 228 kts 273°
2026-05-06 20:57 51.19233 6.52199 3020 ft 216 kts 315°
2026-05-06 20:57 51.20473 6.51080 3018 ft 205 kts 357°
2026-05-06 20:57 51.21810 6.51674 3021 ft 202 kts 40°
2026-05-06 20:57 51.22487 6.53605 3030 ft 207 kts 76°
2026-05-06 20:58 51.22500 6.55928 3020 ft 216 kts 102°
2026-05-06 20:58 51.21697 6.57955 3027 ft 217 kts 136°
2026-05-06 20:58 51.20454 6.59130 3027 ft 198 kts 152°
2026-05-06 20:58 51.19243 6.59948 3021 ft 184 kts 154°
2026-05-06 20:59 51.18054 6.60713 3018 ft 182 kts 154°
2026-05-06 20:59 51.16890 6.61455 3029 ft 179 kts 154°
2026-05-06 20:59 51.15783 6.62150 3022 ft 162 kts 154°
2026-05-06 20:59 51.14759 6.62784 3022 ft 157 kts 155°
2026-05-06 21:00 51.13757 6.63451 3016 ft 156 kts 154°
2026-05-06 21:00 51.12766 6.64146 3016 ft 155 kts 154°
2026-05-06 21:00 51.11759 6.64779 3012 ft 158 kts 168°
2026-05-06 21:00 51.10720 6.64427 3010 ft 154 kts 220°
2026-05-06 21:01 51.10200 6.63039 3024 ft 146 kts 264°
2026-05-06 21:01 51.10062 6.61427 3019 ft 147 kts 268°
2026-05-06 21:01 51.09959 6.59810 3011 ft 147 kts 269°
2026-05-06 21:01 51.09867 6.58190 3009 ft 147 kts 269°
2026-05-06 21:02 51.09789 6.56561 3006 ft 148 kts 270°
2026-05-06 21:02 51.10112 6.55151 2902 ft 138 kts 315°
2026-05-06 21:02 51.10545 6.54401 2969 ft 141 kts 320°
2026-05-06 21:02 51.11304 6.53277 2893 ft 149 kts 321°
2026-05-06 21:03 51.12124 6.52381 2931 ft 142 kts 338°
2026-05-06 21:03 51.13067 6.51880 2977 ft 142 kts 349°
2026-05-06 21:03 51.14038 6.51887 2998 ft 143 kts 15°
2026-05-06 21:03 51.14967 6.52522 3012 ft 145 kts 22°
2026-05-06 21:04 51.15862 6.53225 2906 ft 143 kts 37°
2026-05-06 21:04 51.16686 6.54130 2913 ft 143 kts 36°
2026-05-06 21:04 51.17289 6.55411 3143 ft 146 kts 58°
2026-05-06 21:04 51.17565 6.56933 2958 ft 149 kts 92°
2026-05-06 21:05 51.17060 6.58344 2932 ft 148 kts 126°
2026-05-06 21:05 51.16749 6.59768 3000 ft 135 kts 77°
2026-05-06 21:05 51.16896 6.61316 2907 ft 149 kts 89°
2026-05-06 21:05 51.16392 6.62714 2685 ft 150 kts 138°
2026-05-06 21:06 51.15529 6.63657 2690 ft 149 kts 123°
2026-05-06 21:06 51.15346 6.65111 2563 ft 134 kts 64°
2026-05-06 21:06 51.16035 6.65989 1992 ft 137 kts
2026-05-06 21:06 51.16963 6.65603 1536 ft 137 kts 347°
2026-05-06 21:07 51.17930 6.65685 1475 ft 146 kts
2026-05-06 21:07 51.18955 6.65865 1863 ft 143 kts
2026-05-06 21:07 51.19893 6.66060 2013 ft 131 kts
2026-05-06 21:07 51.20813 6.66252 1755 ft 139 kts
2026-05-06 21:08 51.21754 6.66525 1411 ft 132 kts 21°
2026-05-06 21:08 51.22491 6.67345 1147 ft 128 kts 30°
2026-05-06 21:08 51.23256 6.68111 1074 ft 133 kts 30°
2026-05-06 21:08 51.24030 6.68921 1065 ft 133 kts 30°
2026-05-06 21:09 51.24800 6.69744 986 ft 135 kts 32°
2026-05-06 21:09 51.25540 6.70686 860 ft 134 kts 40°
2026-05-06 21:09 51.26250 6.71792 669 ft 145 kts 44°
2026-05-06 21:09 51.26898 6.73023 435 ft 144 kts 47°
2026-05-06 21:10 51.27523 6.74301 315 ft 149 kts 51°
2026-05-06 21:10 51.28157 6.75636 139 ft 145 kts 52°
2026-05-06 21:10 51.28711 6.76786 133 ft 102 kts 51°
2026-05-06 21:10 51.28974 6.77317 124 ft 45 kts 54°
2026-05-06 21:11 51.29001 6.77589 134 ft 5 kts 139°
2026-05-06 21:11 51.28974 6.77618 135 ft 9 kts 149°
2026-05-06 21:11 51.28912 6.77685 134 ft 10 kts 135°
2026-05-06 21:11 51.28843 6.77758 132 ft 14 kts 147°
2026-05-06 21:12 51.28756 6.77804 128 ft 13 kts 186°
2026-05-06 21:12 51.28676 6.77743 126 ft 11 kts 225°
2026-05-06 21:12 51.28662 6.77604 123 ft 17 kts 264°
2026-05-06 21:12 51.28609 6.77472 132 ft 15 kts 226°
2026-05-06 21:13 51.28529 6.77335 133 ft 17 kts 233°
2026-05-06 21:13 51.28461 6.77180 133 ft 18 kts 235°
2026-05-06 21:13 51.28387 6.77014 132 ft 18 kts 229°
2026-05-06 21:13 51.28301 6.76868 129 ft 5 kts 206°
2026-05-06 21:14 51.28262 6.76855 130 ft 7 kts 187°
2026-05-06 21:14 51.28216 6.76810 129 ft 7 kts 237°
2026-05-06 21:14 51.28207 6.76749 129 ft 6 kts 266°
2026-05-06 21:14 51.28207 6.76742 127 ft 0 kts 279°